Flight Track Log - Related Links

Times and Time Zones

All times are in EDT time to prevent confusion due to time zone crossing. See the ASQ1771 flight status page for this flight to view local times or setup timezone preferences in your user account.

Time Position Orientation Groundspeed Altitude Reporting Facility
EDT Latitude Longitude Course Direction KTS MPH feet Rate Location/Type
Mon 04:33:17 PM 48.1631 -103.6106 270° West 183 211 3,300  Level Salt Lake Center
Mon 04:34:19 PM 48.1325 -103.6519 222° Southwest 238 274 4,800 1,924 Climbing Salt Lake Center
Mon 04:35:00 PM 48.2407 -104.5630 266° West  Level FlightAware Approximate
Mon 04:36:00 PM 48.2333 -104.7267 270° West  Level FlightAware Approximate
Mon 04:36:21 PM 48.2125 -103.8217 305° West 249 287 9,200  Level Salt Lake Center
Mon 04:37:00 PM 48.2334 -104.8908 270° West  Level FlightAware Approximate
Mon 04:37:23 PM 48.2508 -103.9208 300° West 261 300 11,900  Level Salt Lake Center
Mon 04:38:00 PM 48.2334 -105.0548 270° West  Level FlightAware Approximate
Mon 04:38:24 PM 48.2539 -104.0803 272° West 302 348 13,900  Level Salt Lake Center
Mon 04:39:26 PM 48.2519 -104.2200 269° West 321 369 15,900 1,914 Climbing Salt Lake Center
Mon 04:41:00 PM 48.2452 -104.4769 266° West  Level FlightAware Approximate
Mon 04:41:29 PM 48.2500 -104.5158 266° West 348 400 19,800  Level Salt Lake Center
Mon 04:42:30 PM 48.2494 -104.6708 270° West 360 414 21,700 1,770 Climbing Salt Lake Center
Mon 04:43:31 PM 48.2469 -104.8297 269° West 371 427 23,400 1,610 Climbing Salt Lake Center
Mon 04:44:33 PM 48.2433 -104.9978 268° West 385 443 25,000 1,707 Climbing Salt Lake Center
Mon 04:45:34 PM 48.2425 -105.2050 270° West 402 463 26,900 1,672 Climbing Salt Lake Center
Mon 04:46:35 PM 48.2406 -105.3806 269° West 413 475 28,400 1,512 Climbing Salt Lake Center
Mon 04:47:37 PM 48.2381 -105.5567 269° West 419 482 30,000 1,557 Climbing Salt Lake Center
Mon 04:49:00 PM 48.2304 -105.7835 266° West  Level FlightAware Approximate
Mon 04:49:40 PM 48.2311 -105.9175 266° West 431 496 33,200  Level Salt Lake Center
Mon 04:51:00 PM 48.2167 -106.1351 270° West  Level FlightAware Approximate
Mon 04:51:43 PM 48.2253 -106.2967 270° West 462 532 34,000  Level Salt Lake Center
Mon 04:52:44 PM 48.2194 -106.4950 268° West 474 545 34,000  Level Salt Lake Center
Mon 04:54:00 PM 48.1892 -106.6983 259° West  Level FlightAware Approximate
Mon 04:54:47 PM 48.1750 -106.9147 259° West 465 535 34,000  Level Salt Lake Center
Mon 04:56:50 PM 48.1214 -107.2906 258° West 464 534 34,000  Level Salt Lake Center
Mon 04:57:51 PM 48.0992 -107.4708 260° West 462 532 34,000  Level Salt Lake Center
Mon 04:58:52 PM 48.0708 -107.6600 257° West 467 537 34,000  Level Salt Lake Center
Mon 04:59:54 PM 48.0414 -107.8508 257° West 472 543 34,000  Level Salt Lake Center
Mon 05:01:00 PM 48.0127 -108.0254 256° West  Level FlightAware Approximate
Mon 05:02:58 PM 47.9489 -108.4681 257° West 479 551 34,000  Level Salt Lake Center
Mon 05:04:00 PM 47.9183 -108.6617 257° West 480 552 34,000  Level Salt Lake Center
Mon 05:06:02 PM 47.8581 -109.0481 257° West 481 554 34,000  Level Salt Lake Center
Mon 05:07:04 PM 47.8631 -109.2458 272° West 482 555 34,000  Level Salt Lake Center
Mon 05:08:00 PM 47.8262 -109.1325 257° West  Level FlightAware Approximate
Mon 05:08:05 PM 47.8814 -109.4397 278° West 478 550 34,000  Level Salt Lake Center
Mon 05:09:07 PM 47.9036 -109.6753 278° West 479 551 34,000  Level Salt Lake Center
Mon 05:11:00 PM 47.9240 -109.9638 278° West  Level FlightAware Approximate
Mon 05:12:11 PM 47.9547 -110.2639 278° West 481 554 34,000  Level Salt Lake Center
Mon 05:14:14 PM 47.9858 -110.6581 277° West 482 555 34,000  Level Salt Lake Center
Mon 05:15:16 PM 48.0014 -110.8550 277° West 483 556 34,000  Level Salt Lake Center
Mon 05:16:17 PM 48.0200 -111.0944 277° West 487 560 34,000  Level Salt Lake Center
Mon 05:17:19 PM 48.0344 -111.2936 276° West 489 563 34,000  Level Salt Lake Center
Mon 05:18:20 PM 48.0492 -111.4939 276° West 490 564 34,000  Level Salt Lake Center
Mon 05:20:00 PM 48.0706 -111.7452 275° West  Level FlightAware Approximate
Mon 05:21:25 PM 48.0911 -112.0936 275° West 487 560 34,000  Level Salt Lake Center
Mon 05:22:27 PM 48.1069 -112.3303 276° West 482 555 33,900 -1,073 Descending Salt Lake Center
Mon 05:23:28 PM 48.1186 -112.5164 275° West 456 525 31,800 -2,195 Descending Salt Lake Center
Mon 05:24:30 PM 48.1297 -112.6867 276° West 435 501 29,400 -2,098 Descending Salt Lake Center
Mon 05:25:31 PM 48.1403 -112.8619 275° West 425 489 27,500 -2,146 Descending Salt Lake Center
Mon 05:26:33 PM 48.1514 -113.0325 276° West 415 478 25,000 -2,371 Descending Salt Lake Center
Mon 05:27:00 PM 48.1308 -112.8229 275° West  Level FlightAware Approximate
Mon 05:27:35 PM 48.1603 -113.1961 275° West 400 460 22,600  Level Salt Lake Center
Mon 05:28:36 PM 48.1719 -113.3869 275° West 386 444 19,600 -2,293 Descending Salt Lake Center
Mon 05:30:00 PM 48.1853 -113.6028 275° West  Level FlightAware Approximate
Mon 05:31:41 PM 48.1961 -113.8286 326° Northwest 349 402 13,200  Level Salt Lake Center
Mon 05:32:43 PM 48.2025 -113.9542 274° West 330 380 11,900 -1,258 Descending Salt Lake Center
Mon 05:34:00 PM 48.2000 -114.1529 270° West  Level FlightAware Approximate
Mon 05:37:00 PM 48.3000 -114.2500 326° Northwest  Level FlightAware Approximate
Mon 05:41:00 PM 48.3000 -114.2500 326° Northwest  Level FlightAware Approximate

Login

Don't have an account? Register now (free) for customized features, flight alerts, and more!